Вернуться в каталог

ONEWEB-0268

АктивенСвязьPO
NORAD 48986·PAYLOAD·🇬🇧 United Kingdom

Запущен Jul 1, 2021 с Vostochny Cosmodrome

Loading…

Ближайшие Пролёты (ближайшие 24 часа)

TLE

СвежийSource: CelesTrak SupGP

Эпоха: Sep 14, 2026, 13:54 UTC

1 48986C 21060V   26257.57933287 -.00000193  00000+0 -50466-3 0  2575
2 48986  87.9151 211.0312 0002161  82.7440  20.6946 13.16593757    18

Отслеживайте ONEWEB-0268 в реальном времени с AllMySat

Download on the App Store